When you browse on this site, cookies collect data to enhance your experience and personalize the content and advertising you see.
Visit our Privacy Policy to learn more. By continuing to use the site, you agree to this use of cookies and data.
  • In Germany
  • List of Countries
  • For 7 days
  • Water Temperature
  • Weather Map
  • Weather Widgets
  • user-avatar
    Login

    Hourly Weather Batina

    Today, 23 August, Friday

    Time Temperature Precipitation Wind Pressure Humidity
    00:00 +25°C° 0 mm 1 mps 674 mmHg 69%
    01:00 +25°C° 0.2 mm 1 mps 673 mmHg 70%
    02:00 +24°C° 0.2 mm 1 mps 673 mmHg 70%
    03:00 +22°C° 0.2 mm 0 mps 673 mmHg 71%
    04:00 +22°C° 0.1 mm 0 mps 673 mmHg 69%
    05:00 +24°C° 0.1 mm 1 mps 674 mmHg 68%
    06:00 +24°C° 0 mm 1 mps 674 mmHg 67%
    07:00 +26°C° 0.2 mm 1 mps 674 mmHg 62%
    08:00 +27°C° 0.2 mm 2 mps 675 mmHg 57%
    09:00 +28°C° 0.2 mm 3 mps 675 mmHg 52%
    10:00 +29°C° 0.5 mm 3 mps 675 mmHg 48%
    11:00 +29°C° 0.5 mm 3 mps 675 mmHg 45%
    12:00 +30°C° 0.5 mm 4 mps 675 mmHg 41%
    13:00 +30°C° 0 mm 4 mps 675 mmHg 41%
    14:00 +32°C° 0 mm 4 mps 674 mmHg 40%
    15:00 +32°C° 0 mm 4 mps 674 mmHg 40%
    16:00 +30°C° 0 mm 3 mps 673 mmHg 42%
    17:00 +29°C° 0 mm 3 mps 673 mmHg 44%
    18:00 +29°C° 0 mm 2 mps 673 mmHg 46%
    19:00 +28°C° 0.2 mm 2 mps 673 mmHg 52%
    20:00 +27°C° 0.2 mm 2 mps 673 mmHg 57%
    21:00 +26°C° 0.2 mm 3 mps 673 mmHg 62%
    22:00 +25°C° 0 mm 2 mps 673 mmHg 64%
    23:00 +25°C° 0 mm 1 mps 673 mmHg 65%

    Tomorrow, 24 August, Saturday

    Time Temperature Precipitation Wind Pressure Humidity
    00:00 +25°C° 0 mm 1 mps 673 mmHg 66%
    01:00 +24°C° 0 mm 1 mps 672 mmHg 66%
    02:00 +24°C° 0 mm 1 mps 672 mmHg 67%
    03:00 +24°C° 0 mm 1 mps 672 mmHg 68%
    04:00 +24°C° 0 mm 1 mps 672 mmHg 66%
    05:00 +24°C° 0 mm 1 mps 672 mmHg 64%
    06:00 +24°C° 0 mm 1 mps 673 mmHg 63%
    07:00 +26°C° 0.1 mm 1 mps 673 mmHg 57%
    08:00 +27°C° 0.1 mm 1 mps 674 mmHg 51%
    09:00 +28°C° 0.1 mm 2 mps 674 mmHg 46%
    10:00 +29°C° 0.3 mm 3 mps 674 mmHg 44%
    11:00 +29°C° 0.3 mm 4 mps 674 mmHg 42%
    12:00 +30°C° 0.3 mm 4 mps 674 mmHg 39%
    13:00 +30°C° 0.2 mm 4 mps 673 mmHg 40%
    14:00 +29°C° 0.2 mm 4 mps 673 mmHg 40%
    15:00 +29°C° 0.2 mm 4 mps 673 mmHg 41%
    16:00 +28°C° 0 mm 4 mps 673 mmHg 44%
    17:00 +27°C° 0 mm 4 mps 672 mmHg 47%
    18:00 +27°C° 0 mm 3 mps 672 mmHg 50%
    19:00 +26°C° 0 mm 3 mps 672 mmHg 54%
    20:00 +25°C° 0 mm 2 mps 672 mmHg 58%
    21:00 +24°C° 0 mm 2 mps 672 mmHg 63%
    22:00 +24°C° 0 mm 2 mps 672 mmHg 63%
    23:00 +24°C° 0 mm 1 mps 672 mmHg 63%

    Day after tomorrow, 25 August, Sunday

    Time Temperature Precipitation Wind Pressure Humidity
    00:00 +23°C° 0 mm 1 mps 671 mmHg 63%
    01:00 +23°C° 0 mm 1 mps 671 mmHg 65%
    02:00 +23°C° 0 mm 1 mps 671 mmHg 68%
    03:00 +22°C° 0 mm 1 mps 671 mmHg 70%
    04:00 +23°C° 0 mm 1 mps 671 mmHg 68%
    05:00 +23°C° 0 mm 1 mps 672 mmHg 66%
    06:00 +23°C° 0 mm 1 mps 672 mmHg 64%
    07:00 +25°C° 0 mm 1 mps 673 mmHg 56%
    08:00 +27°C° 0 mm 2 mps 673 mmHg 47%
    09:00 +28°C° 0 mm 2 mps 674 mmHg 39%
    10:00 +29°C° 0 mm 3 mps 674 mmHg 36%
    11:00 +30°C° 0 mm 4 mps 674 mmHg 33%
    12:00 +32°C° 0 mm 4 mps 673 mmHg 30%
    13:00 +32°C° 0 mm 4 mps 673 mmHg 31%
    14:00 +32°C° 0 mm 4 mps 673 mmHg 31%
    15:00 +32°C° 0 mm 4 mps 672 mmHg 31%
    16:00 +30°C° 0 mm 3 mps 672 mmHg 34%
    17:00 +29°C° 0 mm 3 mps 672 mmHg 37%
    18:00 +28°C° 0 mm 2 mps 671 mmHg 40%
    19:00 +27°C° 0 mm 1 mps 672 mmHg 43%
    20:00 +27°C° 0 mm 1 mps 672 mmHg 47%
    21:00 +26°C° 0 mm 1 mps 672 mmHg 51%
    22:00 +25°C° 0 mm 1 mps 672 mmHg 53%
    23:00 +23°C° 0 mm 0 mps 672 mmHg 55%

    26 August, Monday

    Time Temperature Precipitation Wind Pressure Humidity
    00:00 +22°C° 0 mm 0 mps 672 mmHg 57%
    01:00 +24°C° 0 mm 1 mps 671 mmHg 57%
    02:00 +23°C° 0 mm 1 mps 671 mmHg 57%
    03:00 +23°C° 0 mm 1 mps 671 mmHg 57%
    04:00 +23°C° 0 mm 1 mps 672 mmHg 55%
    05:00 +24°C° 0 mm 1 mps 672 mmHg 54%
    06:00 +24°C° 0 mm 1 mps 672 mmHg 52%
    07:00 +26°C° 0 mm 2 mps 673 mmHg 45%
    08:00 +28°C° 0 mm 3 mps 673 mmHg 39%
    09:00 +29°C° 0 mm 3 mps 674 mmHg 32%
    10:00 +30°C° 0 mm 4 mps 674 mmHg 29%
    11:00 +32°C° 0 mm 5 mps 674 mmHg 27%
    12:00 +33°C° 0 mm 6 mps 674 mmHg 24%
    13:00 +33°C° 0 mm 5 mps 673 mmHg 24%
    14:00 +33°C° 0 mm 5 mps 673 mmHg 24%
    15:00 +34°C° 0 mm 5 mps 672 mmHg 23%
    16:00 +33°C° 0 mm 5 mps 672 mmHg 25%
    17:00 +32°C° 0 mm 4 mps 672 mmHg 27%
    18:00 +30°C° 0 mm 4 mps 672 mmHg 28%
    19:00 +29°C° 0 mm 3 mps 672 mmHg 30%
    20:00 +29°C° 0 mm 3 mps 672 mmHg 32%
    21:00 +28°C° 0 mm 2 mps 672 mmHg 34%
    22:00 +27°C° 0 mm 2 mps 672 mmHg 36%
    23:00 +27°C° 0 mm 2 mps 672 mmHg 37%

    27 August, Tuesday

    Time Temperature Precipitation Wind Pressure Humidity
    00:00 +26°C° 0 mm 1 mps 672 mmHg 38%
    01:00 +26°C° 0 mm 2 mps 672 mmHg 38%
    02:00 +26°C° 0 mm 2 mps 672 mmHg 38%
    03:00 +25°C° 0 mm 2 mps 672 mmHg 39%
    04:00 +25°C° 0 mm 3 mps 672 mmHg 43%
    05:00 +25°C° 0 mm 3 mps 672 mmHg 47%
    06:00 +24°C° 0 mm 3 mps 672 mmHg 51%
    07:00 +26°C° 0 mm 3 mps 673 mmHg 46%
    08:00 +27°C° 0 mm 3 mps 674 mmHg 40%
    09:00 +29°C° 0 mm 4 mps 674 mmHg 34%
    10:00 +29°C° 0 mm 5 mps 674 mmHg 33%
    11:00 +29°C° 0 mm 6 mps 674 mmHg 33%
    12:00 +30°C° 0 mm 7 mps 674 mmHg 32%
    13:00 +30°C° 0.1 mm 6 mps 674 mmHg 31%
    14:00 +30°C° 0.1 mm 5 mps 673 mmHg 31%
    15:00 +30°C° 0.1 mm 3 mps 673 mmHg 30%
    16:00 +29°C° 0 mm 3 mps 673 mmHg 31%
    17:00 +29°C° 0 mm 2 mps 673 mmHg 33%
    18:00 +28°C° 0 mm 1 mps 673 mmHg 34%
    19:00 +27°C° 0 mm 2 mps 673 mmHg 37%
    20:00 +26°C° 0 mm 3 mps 673 mmHg 40%
    21:00 +25°C° 0 mm 3 mps 673 mmHg 43%
    22:00 +25°C° 0.3 mm 4 mps 673 mmHg 47%
    23:00 +23°C° 0.3 mm 4 mps 673 mmHg 51%

    28 August, Wednesday

    Time Temperature Precipitation Wind Pressure Humidity
    00:00 +22°C° 0.3 mm 4 mps 673 mmHg 55%
    01:00 +22°C° 0.2 mm 3 mps 672 mmHg 53%
    02:00 +24°C° 0.2 mm 2 mps 672 mmHg 52%
    03:00 +24°C° 0.2 mm 1 mps 672 mmHg 51%
    04:00 +24°C° 0.1 mm 1 mps 672 mmHg 51%
    05:00 +24°C° 0.1 mm 1 mps 673 mmHg 50%
    06:00 +24°C° 0.1 mm 1 mps 673 mmHg 50%
    07:00 +25°C° 0 mm 2 mps 673 mmHg 46%
    08:00 +26°C° 0 mm 2 mps 674 mmHg 43%
    09:00 +27°C° 0 mm 2 mps 674 mmHg 39%
    10:00 +28°C° 0 mm 3 mps 674 mmHg 36%
    11:00 +29°C° 0 mm 4 mps 674 mmHg 33%
    12:00 +30°C° 0 mm 5 mps 674 mmHg 30%
    13:00 +30°C° 0 mm 5 mps 674 mmHg 30%
    14:00 +30°C° 0 mm 6 mps 673 mmHg 29%
    15:00 +32°C° 0 mm 6 mps 673 mmHg 28%
    16:00 +29°C° 0 mm 5 mps 673 mmHg 33%
    17:00 +28°C° 0 mm 4 mps 673 mmHg 38%
    18:00 +27°C° 0 mm 3 mps 672 mmHg 43%
    19:00 +26°C° 0.1 mm 3 mps 672 mmHg 50%
    20:00 +25°C° 0.1 mm 3 mps 673 mmHg 58%
    21:00 +24°C° 0.1 mm 2 mps 673 mmHg 65%
    22:00 +23°C° 0 mm 2 mps 673 mmHg 69%
    23:00 +23°C° 0 mm 2 mps 672 mmHg 72%
    Show more